EHI
0 0 0 0 0 0 0 0 0 0 0 0 0 0 0 0 0 0 0 0 0 0 1 2 3 3 4 5 6 5 3 1 0 0 0 0 0 0 0 0 0 0 0 0 0 0 0 0 0
0 0 0 0 0 0 0 0 0 0 0 0 0 0 0 0 0 0 0 0 0 0 0 2 4 5 5 5 4 4 3 2 0 0 0 0 0 0 0 0 0 0 0 0 0 0 0 0 0
0 0 0 0 0 0 0 0 0 0 0 0 0 0 0 0 0 0 0 0 0 0 0 1 4 6 5 4 3 3 2 1 0 0 0 0 0 0 0 0 0 0 0 0 0 0 0 0 1
0 0 0 0 0 0 0 0 0 0 0 0 0 0 0 0 0 0 0 0 0 0 0 1 3 4 4 3 3 2 1 1 0 0 0 0 0 0 0 0 0 0 0 0 0 0 0 0 1
0 0 0 0 0 0 0 0 0 0 0 0 0 0 0 0 0 0 0 0 0 0 0 0 1 1 2 3 2 1 0 0 0 0 0 0 0 0 0 0 0 0 0 0 0 0 0 0 1
0 0 0 0 0 0 0 0 0 0 0 0 0 0 0 0 0 0 0 0 0 0 0 0 0 0 1 2 1 0 0 0 0 0 0 0 0 0 0 0 0 0 0 0 0 0 0 0 0
0 0 0 0 0 0 0 0 0 0 0 0 0 0 0 0 0 0 0 0 0 0 0 0 0 0 0 0 0 0 0 0 0 0 0 0 0 0 0 0 0 0 0 0 0 0 0 0 0
0 0 0 0 0 0 0 0 0 0 0 0 0 0 0 0 0 0 0 0 0 0 0 0 0 0 0 0 0 0 0 0 0 0 0 0 0 0 0 0 0 0 0 0 0 0 0 0 0
0 0 0 0 0 0 0 0 0 0 0 0 0 0 0 0 1 2 1 0 0 0 0 0 0 0 0 0 0 0 0 0 0 0 0 0 0 0 0 0 0 0 0 0 0 0 0 0 0
0 0 0 0 0 0 0 0 0 0 0 0 0 1 0 0 1 2 1 0 0 0 0 0 0 0 0 0 0 0 0 0 0 0 0 0 0 0 0 0 0 0 0 0 0 0 0 0 0
0 0 0 0 0 0 0 0 0 0 0 0 0 0 0 0 1 2 1 0 0 0 0 0 0 0 0 0 0 0 0 0 0 0 0 0 0 0 0 0 0 0 0 0 0 0 0 0 0
0 0 0 0 0 0 0 0 0 0 0 0 0 0 0 0 0 0 0 0 0 0 0 0 0 0 0 0 0 0 0 0 0 0 0 0 0 0 0 0 0 0 0 0 0 0 0 0 0
0 0 0 0 0 0 0 0 0 0 0 0 0 0 0 0 0 0 0 0 0 0 0 0 0 0 0 0 0 0 0 0 0 0 0 0 0 0 0 0 0 0 0 0 0 0 0 0 0
0 0 0 0 0 0 0 0 0 0 0 0 0 0 0 0 0 0 0 0 0 0 0 0 0 0 0 0 0 0 0 0 0 0 0 0 0 0 0 0 0 0 0 0 0 0 0 0 0
0 0 0 0 0 0 0 0 0 0 0 0 0 0 0 0 0 0 0 0 0 0 0 0 0 0 0 0 0 0 0 0 0 0 0 0 0 0 0 0 0 0 0 0 0 0 0 0 0
0 0 0 0 0 0 0 0 0 0 0 0 0 0 0 0 0 0 0 0 0 0 0 0 0 0 0 0 0 0 0 0 0 0 0 0 0 0 0 0 0 0 0 0 0 0 0 0 0
0 0 0 0 0 0 0 0 0 0 0 0 0 0 0 0 0 0 0 0 0 0 0 0 0 0 0 0 0 0 0 0 0 0 0 0 0 0 0 0 0 0 0 0 0 0 0 0 0
0 0 0 0 0 0 0 0 0 0 0 0 0 0 0 0 0 0 0 0 0 0 0 0 0 0 0 0 0 0 0 0 0 0 0 0 0 0 0 0 0 0 0 0 0 0 0 0 0
0 0 0 0 0 0 0 0 0 0 0 0 0 0 0 0 0 0 0 0 0 0 0 0 0 0 0 0 0 0 0 0 0 0 0 0 0 0 0 0 0 0 0 0 0 0 0 0 0
0 0 0 0 0 0 0 0 0 0 0 0 0 0 0 0 0 0 0 0 0 0 0 0 0 0 0 0 0 0 0 0 0 0 0 0 0 0 0 0 0 0 0 0 0 0 0 0 0
0 0 0 0 0 0 0 0 0 0 0 0 0 0 0 0 0 0 0 0 0 0 0 0 0 0 0 0 0 0 0 0 0 0 0 0 0 0 0 0 0 0 0 0 0 0 0 0 0
0 0 0 0 0 0 0 0 0 0 0 0 0 0 0 0 0 0 0 0 0 0 0 0 0 0 0 0 0 0 0 0 0 0 0 0 0 0 0 0 0 0 0 0 0 0 0 0 0
0 0 0 0 0 0 0 0 0 0 0 0 0 0 0 0 0 0 0 0 0 0 0 0 0 0 0 0 0 0 0 0 0 0 0 0 0 0 0 0 0 0 0 0 0 0 0 0 0
0 0 0 0 0 0 0 0 0 0 0 0 0 0 0 0 0 0 0 0 0 0 0 0 0 0 0 0 0 0 0 0 0 0 0 0 0 0 0 0 0 0 0 0 0 0 0 0 0
0 0 0 0 0 0 0 0 0 0 0 0 0 0 0 0 0 0 0 0 0 0 0 0 0 0 0 0 0 0 0 0 0 0 0 0 0 0 0 0 0 0 0 0 0 0 0 0 0
0 0 0 0 0 0 0 0 0 0 0 0 0 0 0 0 0 0 0 0 0 0 0 0 0 0 0 0 0 0 0 0 0 0 0 0 0 0 0 0 0 0 0 0 0 0 0 0 0
0 0 0 0 0 0 0 0 0 0 0 0 0 0 0 0 0 0 0 0 0 0 0 0 0 0 0 0 0 0 0 0 0 0 0 0 0 0 0 0 0 0 0 0 0 0 0 0 0
0 0 0 0 0 0 0 0 0 0 0 0 0 0 0 0 0 0 0 0 0 0 0 0 0 0 0 0 0 0 0 0 0 0 0 0 0 0 0 0 0 0 0 0 0 0 0 0 0
0 0 0 0 0 0 0 0 0 0 0 0 0 0 0 0 0 0 0 0 0 0 0 0 0 0 0 0 0 0 0 0 0 0 0 0 0 0 0 0 0 0 0 0 0 0 0 0 0
0 0 0 0 0 0 0 0 0 0 0 0 0 0 0 0 0 0 0 0 0 0 0 0 0 0 0 0 0 0 0 0 0 0 0 0 0 0 0 0 0 0 0 0 0 0 0 0 0
Wind_Speed
6 4 2 4 6 5 1 3 1 0 0 0 2 7 7 5 3 4 1 1 4 3 2 4 7 7 8 9 9 9 9 9 9 9 9 9 9 9 10 9 10 10 10 10 10 10 10 11 11
2 2 5 5 5 2 3 3 2 3 3 2 4 5 6 4 2 4 1 1 4 4 3 3 7 8 8 9 9 9 9 8 8 9 9 9 9 9 10 9 9 10 10 10 10 10 10 10 10
3 2 5 5 4 5 5 3 4 1 0 2 4 4 4 3 2 2 1 3 5 5 4 4 7 8 9 9 9 9 9 8 8 9 9 10 10 9 9 9 9 9 9 9 9 9 9 9 9
3 4 5 4 3 4 4 3 4 2 1 3 4 5 3 3 0 1 3 5 6 5 4 5 8 8 9 9 9 9 9 9 9 9 9 10 10 10 9 9 9 9 9 8 8 8 9 8 9
4 5 4 1 3 3 3 3 3 3 1 1 4 5 3 3 3 5 5 6 6 5 4 5 9 9 9 8 8 8 8 9 9 9 9 9 9 9 9 9 8 8 8 7 7 7 8 8 8
4 4 4 3 4 3 2 2 2 2 1 2 4 5 2 2 4 4 5 6 6 6 5 5 8 9 9 8 7 7 8 8 9 9 9 9 9 9 9 9 8 7 7 7 6 6 7 7 8
4 4 4 5 4 3 2 0 2 2 2 1 3 6 2 0 1 3 5 5 6 6 5 4 4 5 7 7 7 7 7 8 8 8 8 9 9 9 9 8 8 8 7 7 6 6 7 7 8
4 5 3 3 4 4 1 1 1 3 2 2 3 6 4 3 2 5 5 5 5 5 5 4 4 4 3 3 6 7 7 7 8 8 9 8 8 7 7 7 7 8 7 7 6 6 6 7 7
4 4 3 4 5 3 1 2 1 2 4 3 3 2 2 6 6 6 5 4 4 5 4 4 3 3 3 3 4 5 6 7 7 6 8 6 4 3 4 6 7 7 7 7 7 7 7 7 6
4 4 5 2 2 3 2 2 2 3 3 3 4 5 5 6 6 6 5 4 3 3 3 3 3 3 3 3 3 2 3 3 4 3 4 3 3 3 4 6 8 7 8 7 8 8 7 5 3
3 5 3 1 1 2 2 2 1 4 1 2 3 4 5 5 5 4 3 3 2 2 2 2 2 2 2 2 2 2 1 2 3 3 3 3 3 3 3 2 4 4 5 4 5 5 3 3 2
3 1 2 1 1 1 2 2 3 2 2 1 4 7 7 6 4 3 3 2 2 3 2 2 2 2 2 2 2 2 1 1 2 2 3 2 2 2 2 2 2 2 2 3 3 2 3 3 3
2 1 1 1 2 3 4 3 3 1 1 4 6 7 6 5 4 2 2 2 2 3 2 2 2 2 2 2 2 2 1 1 2 2 2 2 2 2 1 1 2 2 2 2 2 2 3 3 3
2 2 1 0 1 1 4 2 2 1 3 5 6 5 4 4 3 2 2 2 2 2 2 2 2 2 2 2 1 1 1 1 2 2 2 2 2 1 1 1 1 1 1 1 1 1 2 2 2
2 2 1 1 1 1 4 2 1 2 4 5 4 4 4 3 4 3 2 2 2 2 2 2 2 2 2 2 1 1 1 1 1 1 1 2 2 1 1 1 1 1 1 2 1 2 2 2 2
2 2 1 3 1 1 3 5 2 2 5 4 3 3 4 4 4 3 4 4 3 3 2 2 2 2 2 2 1 1 1 1 1 1 1 1 1 1 1 1 0 1 1 1 1 1 2 2 2
2 2 4 3 1 2 3 4 1 2 5 3 2 2 3 3 4 4 4 4 3 3 2 3 3 3 2 2 2 1 1 1 1 1 1 1 1 1 1 1 0 1 1 1 1 1 1 1 1
4 4 4 4 1 1 3 3 2 1 3 3 2 2 2 2 2 3 3 3 4 4 3 3 4 3 3 2 2 2 2 2 2 1 1 1 1 1 1 0 0 1 1 1 1 1 1 0 0
4 4 3 3 1 1 4 4 3 1 2 2 2 1 1 1 2 3 3 4 5 5 5 4 4 4 3 2 1 1 1 1 1 1 2 2 1 1 1 0 0 1 1 0 1 1 1 1 1
2 2 1 2 2 1 2 4 3 2 2 3 3 2 2 1 3 3 3 4 4 4 4 4 4 4 3 2 1 1 1 1 1 1 2 2 2 1 1 0 1 1 1 1 1 1 0 1 1
2 3 3 2 3 2 1 4 2 0 1 2 1 2 2 3 2 1 2 3 4 4 4 4 4 4 4 3 2 2 2 2 2 2 2 3 3 2 1 0 1 0 1 2 1 1 1 1 1
4 3 2 1 1 3 0 4 4 2 1 1 1 1 1 1 2 1 2 3 3 4 4 4 4 4 4 3 2 2 2 2 2 2 2 2 3 3 2 2 0 0 1 1 2 1 1 1 1
3 1 2 1 2 1 1 3 6 1 3 4 2 1 1 1 2 2 2 2 3 4 4 4 4 4 5 4 3 2 2 2 2 2 2 2 2 2 3 2 1 1 1 1 2 2 1 1 2
2 3 3 3 3 3 4 4 7 3 5 4 3 2 1 1 1 1 2 2 3 4 4 5 5 5 5 4 3 3 2 3 3 2 2 2 2 2 2 3 2 2 1 2 2 2 2 2 2
3 4 3 4 2 6 2 3 8 3 2 3 4 3 1 1 1 1 2 3 4 4 5 5 5 5 5 5 4 4 3 2 3 2 2 2 2 2 3 3 3 2 2 2 2 2 2 3 3
2 4 6 5 5 5 2 6 5 2 2 1 2 2 1 1 0 0 1 2 2 3 4 4 5 5 5 5 5 4 4 3 3 3 2 3 3 3 3 3 3 3 3 3 2 3 3 3 3
3 2 3 5 1 3 6 5 5 0 2 2 2 1 1 1 0 1 1 2 2 3 3 4 4 5 5 5 5 4 4 4 4 3 3 3 3 3 4 3 3 4 3 3 3 3 4 3 3
1 4 4 4 3 4 6 5 5 4 4 2 1 2 2 1 1 1 2 2 2 2 3 4 4 4 4 5 5 4 5 4 4 3 3 3 4 4 4 4 4 4 4 4 3 3 4 4 4
1 2 3 3 4 5 5 8 4 5 5 5 4 3 2 2 2 2 2 2 2 2 3 3 4 4 4 5 5 5 5 5 4 4 4 4 4 5 5 5 5 5 4 4 4 4 4 5 5
2 3 5 4 4 4 3 8 2 2 2 3 3 3 2 2 2 2 2 2 2 3 3 3 3 4 4 4 5 5 5 4 4 4 5 5 5 5 5 5 5 5 5 4 5 5 5 5 6
Wind_Direction
337 349 59 58 59 60 215 251 225 133 59 74 76 91 99 94 110 139 163 73 105 116 120 130 124 114 108 103 97 93 89 84 82 83 81 78 76 75 73 75 76 75 73 74 77 76 76 75 75
347 18 54 62 95 135 245 240 211 222 185 142 78 83 86 85 75 103 90 71 111 109 101 113 119 114 109 104 99 95 92 87 84 82 80 78 75 73 71 70 74 74 72 72 73 73 75 75 76
340 61 82 82 129 180 209 214 200 226 172 113 81 60 91 108 105 123 137 112 95 83 75 93 108 112 109 105 100 96 92 89 86 83 80 78 74 73 71 70 71 72 72 72 73 73 72 72 75
64 52 60 88 192 219 204 201 183 162 53 58 102 81 66 32 102 133 112 101 94 80 70 76 86 101 107 104 100 97 93 91 88 84 80 78 74 72 70 69 69 69 71 71 73 73 70 68 69
66 83 83 107 223 246 227 212 179 154 151 67 104 107 86 1 49 98 100 99 99 86 71 75 77 80 87 96 100 98 94 90 88 84 81 78 76 73 69 67 70 69 72 74 74 75 71 67 63
68 78 112 195 222 247 253 217 150 134 134 81 104 116 117 19 67 91 95 95 94 91 77 71 72 74 75 76 82 87 88 87 86 81 79 76 74 72 69 63 64 67 71 73 76 75 69 64 63
112 114 164 184 194 232 231 156 122 132 112 77 125 122 135 2 84 100 94 90 83 84 80 63 57 60 66 69 70 75 81 78 78 75 73 74 70 70 68 62 60 63 65 68 70 69 65 61 62
126 116 158 188 186 216 215 109 98 112 132 28 82 133 177 200 146 101 92 84 80 75 73 65 56 52 50 58 62 64 75 77 75 70 67 66 64 66 66 59 59 59 60 62 64 64 62 59 60
96 92 192 201 188 196 167 102 41 72 93 52 41 97 146 134 122 106 97 80 73 69 60 61 59 51 45 54 60 55 63 69 68 67 66 62 56 54 60 57 57 55 55 55 53 53 55 51 51
99 161 208 211 200 166 148 123 146 96 71 56 43 44 80 107 116 118 118 113 95 82 62 59 63 55 49 55 56 52 51 61 61 64 62 55 50 52 59 52 50 48 48 47 47 45 45 43 38
136 176 187 255 283 147 130 105 69 119 120 193 163 131 114 104 104 108 109 105 101 90 66 45 57 59 62 59 61 51 45 53 60 61 59 62 55 49 50 53 44 40 39 37 37 34 26 35 36
133 175 163 254 342 97 127 121 76 85 177 146 141 135 129 124 123 127 124 105 91 79 49 36 39 57 61 66 69 68 60 60 56 50 60 76 72 56 42 46 44 42 34 34 32 36 26 30 32
162 157 109 95 61 82 88 88 109 91 102 91 101 112 121 126 126 122 107 97 83 77 48 38 42 49 55 64 62 60 52 69 70 58 48 72 91 83 59 41 42 35 41 43 30 31 28 25 22
161 135 142 52 91 81 105 80 81 223 118 98 99 108 116 120 116 86 76 76 79 69 49 25 49 50 50 51 61 72 49 64 72 62 40 59 86 99 90 61 39 22 28 34 42 30 29 15 16
100 92 348 281 158 137 103 6 235 202 113 106 106 103 94 83 75 65 49 46 55 67 51 34 43 46 52 39 39 56 46 68 74 55 42 45 66 97 105 94 52 8 16 30 39 34 33 29 20
76 87 253 264 180 143 134 247 255 150 121 115 111 98 86 70 67 54 44 41 38 44 42 31 35 36 35 30 19 56 50 58 58 49 45 40 50 69 95 89 40 9 46 42 38 47 36 31 18
55 203 231 259 197 141 169 233 270 124 126 128 122 116 99 70 46 40 42 45 40 44 46 29 27 30 22 21 16 38 47 42 21 27 60 61 67 68 84 108 74 34 62 50 28 37 38 34 10
203 213 226 234 246 137 199 233 279 139 136 148 145 124 108 92 45 44 43 42 43 40 41 35 23 17 20 27 30 26 33 23 17 11 19 32 58 70 78 80 86 87 78 42 43 55 22 39 355
177 188 225 244 262 173 229 248 267 234 151 165 172 147 136 122 39 57 54 48 43 34 32 28 23 10 17 12 4 4 329 338 358 358 7 11 19 37 85 58 63 91 113 91 51 63 47 14 12
180 178 232 301 344 265 248 261 265 210 185 177 174 169 159 85 43 44 45 40 37 26 20 21 14 3 4 359 332 313 303 292 331 347 357 356 10 11 12 140 158 174 146 121 98 68 61 344 359
208 191 207 251 333 349 359 302 279 306 83 78 119 147 141 147 136 66 47 33 26 19 10 4 4 1 357 357 4 8 15 4 3 354 347 346 351 352 336 305 166 190 173 184 192 170 154 212 272
228 211 195 203 42 286 99 280 268 251 268 280 281 125 143 123 111 90 58 30 19 5 3 4 8 8 3 5 17 23 7 325 295 294 311 334 348 343 337 341 343 230 214 199 209 189 204 191 225
214 211 199 190 159 300 282 226 279 251 242 248 237 202 173 135 117 93 69 39 18 10 9 3 6 9 6 5 4 357 343 321 311 317 329 332 336 339 339 337 338 301 258 237 217 210 207 213 221
120 64 45 53 84 260 227 193 272 233 229 235 213 199 183 130 87 64 41 35 21 15 11 7 7 5 2 1 359 352 336 328 326 324 324 318 316 318 327 329 323 302 276 252 232 218 215 220 229
76 90 32 353 343 252 204 204 250 266 270 222 188 181 175 145 96 50 29 17 11 9 4 2 5 2 359 359 358 348 334 321 303 293 298 304 306 299 299 307 298 294 286 274 252 233 232 226 226
178 148 159 205 235 278 286 233 254 288 337 57 121 141 132 128 121 31 2 7 360 357 357 358 359 356 356 355 348 347 343 335 316 307 300 291 287 281 288 283 283 282 281 283 264 244 238 235 230
142 173 155 138 137 276 265 279 295 174 19 45 89 111 173 229 301 325 338 350 346 341 340 343 348 351 352 351 346 347 348 342 325 318 314 305 302 301 295 281 282 280 275 271 267 250 237 234 233
114 144 113 135 175 259 282 263 245 230 236 240 219 222 252 276 302 316 320 321 327 327 330 341 344 345 346 348 345 345 340 337 329 327 327 319 311 308 306 301 283 280 276 270 263 266 248 238 240
125 147 144 146 169 182 260 266 232 210 201 204 221 229 239 253 264 279 295 305 317 335 339 339 343 344 345 344 342 341 335 333 332 334 329 322 317 313 303 298 295 285 277 273 265 266 262 246 244
174 185 154 169 223 193 214 265 289 206 204 194 215 235 250 255 265 274 286 305 320 328 333 333 336 335 332 333 336 332 329 327 332 329 324 322 316 312 306 299 293 291 286 276 266 262 264 254 248